Regional Weather Roundup
Issued by NWS

Home | Current Version | Previous Version | Text Only | Print | Product List | Glossary Off
Versions: 1 2 3 4 5 6 7 8 9 10 11 12 13 14 15 16 17 18 19 20 21 22 23 24 25 26 27 28 29 30 31 32 33 34 35 36 37 38 39 40 41 42 43 44 45 46 47 48 49 50

000
ASUS45 KBOU 270210
RWRCO

WEATHER ROUNDUP FOR COLORADO
NATIONAL WEATHER SERVICE DENVER/BOULDER CO
800 PM MDT MON SEP 26 2016

NOTE: "FAIR" INDICATES FEW OR NO CLOUDS BELOW 12000 FEET WITH NO
SIGNIFICANT WEATHER AND/OR OBSTRUCTIONS TO VISIBILITY.

COZ001>005-013-030-031-270300-
...NORTHWEST COLORADO...

CITY           SKY/WX    TMP DP  RH WIND       PRES   REMARKS
CRAIG          FAIR      51  36  56 CALM      30.37R
HAYDEN         FAIR      57  30  35 SW5       30.38R
MEEKER         FAIR      56  39  53 NE3       30.36R
MOUNT WERNER   NOT AVBL
STEAMBOAT SPGS FAIR      56  34  43 E3        30.40R
WALDEN           N/A     54  32  43 N13       30.48R
$$

COZ006>008-011-270300-
...WEST CENTRAL VALLEYS...

CITY           SKY/WX    TMP DP  RH WIND       PRES   REMARKS
GRAND JUNCTION FAIR      67  35  30 N8        30.24S
MONTROSE       FAIR      60  41  49 S7        30.31S
EAGLE          FAIR      64  30  27 W3        30.35R
RIFLE          FAIR      63  42  46 S3        30.29R
DELTA          NOT AVBL
NUCLA          FAIR      63  32  31 NW8       30.34S
$$

COZ017>023-064>068-270300-
...SOUTHWEST COLORADO...

CITY           SKY/WX    TMP DP  RH WIND       PRES   REMARKS
DURANGO        FAIR      63  31  30 W5        30.34R
CORTEZ         FAIR      59  40  49 CALM      30.29S
PAGOSA SPRINGS FAIR      54  37  52 CALM      30.40S
TELLURIDE      FAIR      55  32  42 W3        30.51R
WOLF CREEK PAS FAIR      41  28  60 MISG      30.69S
$$

COZ009-010-012-014-032>034-037-058>063-270300-
...CENTRAL COLORADO...

CITY           SKY/WX    TMP DP  RH WIND       PRES   REMARKS
ASPEN          FAIR      52  35  52 SW8       30.42R
BUENA VISTA    FAIR      59  23  24 CALM      30.44R
COPPER MTN     FAIR      46  19  34 NW7       30.69S
BERTHOUD PASS  FAIR      39  27  60 N9        30.72S
COTTONWOOD PAS FAIR      57  19  23 NE3       30.54R
GUNNISON       FAIR      61  36  39 S3        30.39R
KREMMLING      FAIR      61  21  21 N8        30.42R
LEADVILLE      FAIR      50  20  30 NE3       30.54R
MONARCH PASS   FAIR      45  23  42 E9        30.78R
SALIDA         MOCLDY    64  24  21 SE17G25   30.46R
SUNLIGHT       FAIR      50  30  46 NW8       30.64S
WILKERSON PASS FAIR      43  25  49 E14G20    30.67S
$$

COZ069>075-270300-
...SAN LUIS VALLEY/SANGRE DE CRISTO MOUNTAINS...

CITY           SKY/WX    TMP DP  RH WIND       PRES   REMARKS
ALAMOSA        FAIR      54  27  35 CALM      30.38R
LA VETA PASS   FAIR      45  28  53 MISG      30.58R
SAGUACHE       NOT AVBL
$$

COZ035-036-038>040-270300-
...NORTHERN COLORADO FRONT RANGE...

CITY           SKY/WX    TMP DP  RH WIND       PRES   REMARKS
DENVER INTL AP FAIR      65  29  25 E6        30.32R
DMNS CITY PARK   N/A     62  32  32 E1G10     30.32R
AURORA         NOT AVBL
FRONT RANGE AP PTCLDY    64  28  25 SE5       30.33R
ERIE MUNI ARPT FAIR      57  30  35 SW3       30.30R
BOULDER MUN AP FAIR      63  36  36 SW3       30.31R
CENTENNIAL     FAIR      62  30  29 E7        30.34R
BROOMFIELD     PTCLDY    68  30  24 CALM      30.34R
FORT COLLINS   FAIR      66  34  30 S3        30.29R
LONGMONT       FAIR      59  35  41 W7        30.32R
$$

COZ041-046-047-076>085-087-088-270300-
...PIKES PEAK/PALMER DIVIDE AND SOUTHERN FOOTHILLS...

CITY           SKY/WX    TMP DP  RH WIND       PRES   REMARKS
COLO. SPRINGS  FAIR      62  28  27 SE8       30.38R
A. F. ACADEMY  FAIR      59  28  31 SE6       30.38R
SCHRIEVER AFB  NOT AVBL
ELLICOTT       NOT AVBL
FALCON         FAIR      54  28  35 S3        30.42R
FORT CARSON    FAIR      63  28  26 SW7       30.34R
LIMON          FAIR      52  29  41 N5        30.32S
MONUMENT HILL  FAIR      52  30  43 SE6       30.43R
TRINIDAD       FAIR      63  30  28 E6        30.32R
$$

COZ042>045-048>051-090-091-270300-
...NORTHEAST COLORADO...

CITY           SKY/WX    TMP DP  RH WIND       PRES   REMARKS
GREELEY ARPT   FAIR      64  39  39 E6        30.29R
AKRON          FAIR      59  37  44 E7        30.29R
BURLINGTON     FAIR      64  35  34 E3        30.27R
WRAY           NOT AVBL
STERLING       FAIR      59  41  51 CALM      30.26R
HOLYOKE        FAIR      61  43  51 NW3       30.25R
FORT MORGAN    FAIR      59  36  41 NE9       30.29R
$$

COZ086-089-092>099-270300-
...SOUTHEAST COLORADO...

CITY           SKY/WX    TMP DP  RH WIND       PRES   REMARKS
PUEBLO         FAIR      63  30  28 E6        30.27R
LA JUNTA       FAIR      65  32  29 E7        30.26S
LAMAR          FAIR      56  31  38 S5        30.23S
SPRINGFIELD    NOT AVBL
$$



USA.gov is the U.S. government's official web portal to all federal, state and local government web resources and services.